This demonstration page uses our WeatherBlox Daily Observations layout. Learn more.

Left ArrowRight Arrow

53.62937, 11.41316

Hourly Observations for January 19, 2022

Temp ( °F °C ) Dew Point ( °F °C ) Humidity (%) Winds ( mph kmh ) Pressure ( in mb ) Visibility ( mi km ) Precip ( " mm )
12:20 am 00:20 Cloudy 41 5 37 3 87 87 WSW 6 9 30.45 1031 30 48 N/A
12:50 am 00:50 Cloudy 41 5 37 3 87 87 WSW 8 13 30.45 1031 30 48 N/A
1:20 am 01:20 Cloudy 41 5 37 3 87 87 WSW 12 19 30.45 1031 30 48 N/A
1:50 am 01:50 Cloudy 41 5 37 3 87 87 WSW 12 19 30.42 1030 30 48 N/A
2:50 am 02:50 Cloudy 39 4 37 3 93 93 SW 7 11 30.42 1030 30 48 N/A
3:20 am 03:20 Cloudy 39 4 36 2 87 87 WSW 10 17 30.39 1029 30 48 N/A
3:50 am 03:50 Mostly Cloudy 39 4 36 2 87 87 SW 6 9 30.36 1028 30 48 N/A
4:20 am 04:20 Cloudy 39 4 36 2 87 87 SSW 7 11 30.33 1027 5 8 N/A
4:50 am 04:50 Cloudy 39 4 36 2 87 87 SW 7 11 30.33 1027 30 48 N/A
5:20 am 05:20 Cloudy 39 4 36 2 87 87 VRB 5 7 30.33 1027 30 48 N/A
6:20 am 06:20 Cloudy 37 3 36 2 93 93 VRB 5 7 30.30 1026 30 48 N/A
6:50 am 06:50 Cloudy 37 3 36 2 93 93 VRB 5 7 30.27 1025 30 48 N/A
7:20 am 07:20 Cloudy 37 3 36 2 93 93 VRB 5 7 30.27 1025 30 48 N/A
7:50 am 07:50 Mostly Cloudy 37 3 36 2 93 93 VRB 7 11 30.24 1024 30 48 N/A
8:20 am 08:20 Mostly Cloudy 37 3 36 2 93 93 SW 8 13 30.24 1024 30 48 N/A
8:50 am 08:50 Cloudy 39 4 36 2 87 87 SW 6 9 30.21 1023 6 9 N/A
9:20 am 09:20 Cloudy 39 4 36 2 87 87 VRB 7 11 30.21 1023 4 7 N/A
9:50 am 09:50 Cloudy 39 4 36 2 87 87 SW 6 9 30.18 1022 6 9 N/A
10:20 am 10:20 Cloudy 39 4 36 2 87 87 WSW 9 15 30.18 1022 30 48 N/A
10:50 am 10:50 Mostly Cloudy 39 4 36 2 87 87 VRB 8 13 30.15 1021 30 48 N/A
11:20 am 11:20 Mostly Cloudy 39 4 36 2 87 87 SW 8 13 30.15 1021 30 48 N/A
11:50 am 11:50 Mostly Cloudy 39 4 36 2 87 87 WSW 10 17 30.12 1020 30 48 N/A
12:20 pm 12:20 Mostly Cloudy 41 5 36 2 81 81 SW 8 13 30.09 1019 30 48 N/A
12:50 pm 12:50 Cloudy 41 5 36 2 81 81 WSW 10 17 30.09 1019 30 48 N/A
1:20 pm 13:20 Mostly Cloudy 39 4 36 2 87 87 VRB 9 15 30.06 1018 30 48 N/A
1:50 pm 13:50 Mostly Cloudy 39 4 34 1 81 81 SW 12 19 30.03 1017 30 48 N/A
2:20 pm 14:20 Mostly Cloudy 39 4 34 1 81 81 SW 10 17 30.03 1017 30 48 N/A
2:50 pm 14:50 Mostly Cloudy 39 4 36 2 87 87 VRB 7 11 30.00 1016 6 9 N/A
3:20 pm 15:20 Mostly Cloudy 39 4 34 1 81 81 VRB 7 11 29.98 1015 30 48 N/A
3:50 pm 15:50 Mostly Cloudy 39 4 36 2 87 87 VRB 8 13 29.95 1014 30 48 N/A
4:20 pm 16:20 Mostly Cloudy 39 4 36 2 87 87 VRB 9 15 29.92 1013 30 48 N/A
4:50 pm 16:50 Mostly Cloudy 39 4 36 2 87 87 VRB 8 13 29.92 1013 6 9 N/A
5:20 pm 17:20 Mostly Cloudy with Mist and Fog 39 4 37 3 93 93 SW 7 11 29.92 1013 3 5 N/A
5:50 pm 17:50 Mostly Cloudy with Light Rain 39 4 37 3 93 93 VRB 7 11 29.89 1012 3 5 N/A
6:20 pm 18:20 Mostly Cloudy with Mist and Fog 39 4 37 3 93 93 VRB 8 13 29.86 1011 3 5 N/A
6:50 pm 18:50 Mostly Cloudy with Light Rain 39 4 37 3 93 93 WSW 12 19 29.86 1011 2 4 N/A
7:20 pm 19:20 Mostly Cloudy 39 4 37 3 93 93 SW 9 15 29.83 1010 4 7 N/A
7:50 pm 19:50 Cloudy with Light Rain 41 5 39 4 93 93 WSW 13 20 29.83 1010 3 4 N/A
8:20 pm 20:20 Mostly Cloudy with Drizzle 41 5 39 4 93 93 WSW 14 22 29.83 1010 2 4 N/A
8:50 pm 20:50 Mostly Cloudy 43 6 39 4 87 87 W 13 20 29.83 1010 30 48 N/A
9:20 pm 21:20 Mostly Cloudy 41 5 37 3 87 87 WNW 15 24 29.86 1011 30 48 N/A
9:50 pm 21:50 Mostly Clear 41 5 34 1 76 76 WNW 15 24 29.86 1011 30 48 N/A
10:20 pm 22:20 Mostly Cloudy 41 5 32 0 70 70 W 16 26 29.86 1011 30 48 N/A
10:50 pm 22:50 Mostly Cloudy 41 5 32 0 70 70 WNW 17 28 29.89 1012 30 48 N/A
11:20 pm 23:20 Mostly Cloudy 39 4 32 0 75 75 WNW 16 26 29.89 1012 30 48 N/A
11:50 pm 23:50 Mostly Cloudy 39 4 30 -1 70 70 WNW 15 24 29.89 1012 30 48 N/A

Powered by AerisWeather